Location: Baix
(44.7118°N, 4.7648°E)
Time: 00:24:04
(UTC+00:00)

Vanguard 3 - Pass Details

Date: 27 November 2020
Orbit: 508 x 3262 km, 33.3° (Epoch: 19 January)

Event Time Altitude Azimuth Distance (km) Brightness Sun altitude
Rises 21:16:57 0° 227° (SW) 2,600 - -54.2°
Reaches altitude 10° 21:19:35 10° 204° (SSW) 1,793 - -54.6°
Maximum altitude 21:22:08 17° 163° (SSE) 1,555 - -55.0°
Drops below altitude 10° 21:25:10 10° 123° (ESE) 2,186 - -55.5°
Sets 21:28:54 0° 104° (ESE) 3,507 - -56.0°
